Theta_e
311 314 314 312 312 313 312 312 312 312 314 317 317 316 317 319 320 322 323 321 319 322 323 324 325 324 322 321 322 321 314 314 317 321 321 325 322 325 324 325 325 326 325 325 326
308 310 313 314 313 312 313 312 312 313 312 314 315 317 317 318 320 322 324 320 316 322 323 324 324 325 322 321 321 317 313 316 320 320 320 323 323 325 325 326 326 326 326 326 327
311 309 311 314 314 311 313 313 312 313 313 312 312 318 317 317 320 325 322 317 317 323 323 324 323 324 323 323 321 319 315 318 321 322 322 322 323 324 326 325 327 328 329 329 330
313 310 311 312 314 314 312 314 313 314 315 313 313 313 315 316 323 323 322 318 321 322 323 323 324 323 323 322 324 322 322 323 323 323 322 320 323 324 327 327 327 328 329 330 331
315 311 312 311 313 314 311 314 314 315 317 315 314 314 316 323 323 323 317 319 322 322 323 323 323 323 321 322 325 324 321 323 324 324 323 324 323 324 327 327 327 328 329 329 330
319 314 313 311 312 314 312 315 315 316 317 317 314 315 317 323 321 322 321 321 322 322 322 323 323 323 323 323 321 324 325 324 324 324 325 324 323 325 327 326 327 328 328 329 329
318 317 313 311 312 313 312 316 316 317 317 317 315 316 317 323 321 322 322 322 321 320 321 322 323 323 324 323 325 324 322 321 324 324 324 325 323 325 327 327 327 328 328 329 329
317 319 313 311 311 312 313 317 317 317 316 318 318 317 320 322 321 322 323 322 322 320 321 322 322 322 323 325 324 323 321 319 320 323 324 324 322 325 326 327 327 328 328 329 329
316 318 314 311 310 311 315 317 317 317 318 317 318 317 325 323 320 322 321 322 322 322 321 321 321 323 325 322 321 323 322 322 323 324 323 324 325 326 327 327 327 327 328 329 329
314 317 318 312 313 315 317 317 317 318 320 318 319 323 326 323 322 321 321 321 322 322 323 323 323 322 321 321 323 323 324 325 325 324 324 324 322 326 328 327 327 326 328 328 327
313 315 318 314 314 316 319 320 325 324 320 322 321 325 327 323 322 321 321 320 322 323 323 325 321 323 322 322 322 322 322 323 324 324 323 323 323 321 327 326 326 326 326 327 327
311 313 316 318 313 318 322 324 323 321 322 324 326 325 325 322 322 322 321 320 322 322 323 322 322 323 322 322 322 322 323 322 324 324 322 323 322 321 322 325 326 326 327 326 326
312 313 315 318 318 320 321 322 320 321 322 323 323 325 322 322 322 323 321 321 321 321 321 321 322 324 322 322 322 323 324 324 322 321 320 320 320 320 322 327 327 326 326 326 326
313 313 314 317 317 319 321 323 321 321 322 324 325 322 323 322 322 323 321 320 321 322 321 321 321 321 323 324 322 321 322 323 325 320 319 321 319 320 325 326 327 326 326 327 326
314 315 314 316 318 318 321 319 320 321 329 328 324 323 322 322 322 322 322 321 320 322 321 320 322 321 322 322 320 319 320 319 320 318 321 321 322 328 329 328 327 326 325 327 325
315 315 316 316 317 321 322 322 321 324 329 327 324 323 322 323 323 322 323 321 320 320 319 319 321 321 320 320 319 319 318 318 321 319 324 323 326 329 329 330 327 326 325 326 323
315 315 316 317 316 320 321 321 323 325 327 328 325 322 322 323 323 324 324 321 320 322 323 321 319 319 319 318 318 319 322 325 327 325 326 325 327 328 328 328 327 326 325 323 323
315 316 316 318 316 319 321 322 325 327 327 329 327 324 324 322 323 323 323 322 323 322 320 321 324 319 319 319 320 321 320 325 320 323 324 324 331 328 326 326 326 324 323 323 323
312 315 318 318 319 320 321 324 325 326 326 328 327 324 323 323 323 324 324 322 321 321 321 324 324 320 320 318 320 326 326 327 325 329 322 323 328 327 326 325 325 325 324 324 323
311 315 320 320 319 320 322 324 325 325 325 326 326 326 324 323 323 324 324 324 324 322 320 323 325 322 319 318 317 321 323 324 329 324 330 325 329 331 327 327 325 324 324 323 323
313 314 322 320 322 322 324 325 324 324 324 325 326 326 325 325 325 324 325 323 324 321 320 320 322 322 320 318 317 319 321 321 325 328 324 323 324 325 325 325 325 324 324 324 321
311 314 321 324 325 325 324 325 324 325 325 325 324 324 325 326 326 324 325 326 323 321 320 322 323 325 324 322 319 319 319 322 326 326 325 325 326 325 324 323 324 323 323 321 319
308 311 318 319 324 324 324 326 325 325 326 326 324 324 324 323 325 324 324 324 322 322 324 323 321 319 318 318 321 322 322 320 321 323 325 325 326 323 324 323 323 324 322 319 320
308 315 319 320 320 322 324 324 325 325 328 327 325 324 324 324 323 324 323 324 322 320 320 322 321 322 324 326 320 323 326 324 320 324 325 326 326 325 324 324 323 321 321 320 320
311 315 313 318 313 314 318 321 325 327 327 325 326 324 325 325 323 323 322 324 320 320 321 318 319 320 320 320 320 321 321 319 318 319 321 321 324 325 324 323 323 321 320 320 320
313 313 312 311 313 316 317 322 323 325 325 327 326 326 324 326 325 326 326 323 324 320 321 319 321 322 323 323 322 321 320 320 320 318 318 319 324 321 323 322 320 320 319 319 320
310 310 311 311 311 314 318 318 320 319 323 323 324 324 325 324 323 322 322 321 321 323 323 323 321 324 325 325 324 323 323 322 321 319 321 323 323 321 321 320 319 319 319 320 318
Wind_Speed
18 16 14 12 11 9 8 8 7 7 6 5 5 4 3 3 2 4 5 3 7 1 0 1 3 3 6 9 13 15 3 5 8 9 3 7 6 13 11 9 19 20 18 14 12
24 20 16 13 12 10 9 8 8 7 6 5 5 6 6 8 10 12 11 9 4 1 3 6 14 13 11 16 7 5 3 6 3 6 7 9 13 16 16 24 23 24 20 15 13
29 24 18 15 13 12 10 9 8 7 6 6 5 7 9 10 14 5 5 7 2 2 4 9 6 4 15 20 11 10 7 5 7 14 15 7 9 12 17 9 21 23 21 23 18
30 29 23 16 14 12 10 9 7 6 5 6 7 8 10 9 4 4 5 4 5 4 8 10 9 18 6 6 15 1 11 2 9 14 9 8 9 14 24 16 16 18 14 17 26
31 31 26 19 14 12 10 8 6 4 4 5 7 6 4 5 12 8 3 5 4 8 12 15 17 10 6 11 5 3 8 2 5 7 4 13 11 11 20 18 17 17 20 15 14
32 32 29 22 15 12 9 7 4 3 4 5 6 5 5 7 1 3 6 3 8 10 12 8 11 13 9 11 4 9 11 2 2 4 5 2 8 8 13 12 13 11 14 16 14
33 32 31 25 16 11 7 6 4 3 4 5 5 6 9 11 3 4 7 3 5 6 11 10 6 12 13 8 4 3 4 8 4 5 6 4 5 7 17 13 14 11 10 11 10
31 32 31 27 17 10 6 5 5 4 4 5 6 6 8 3 7 8 7 8 4 3 5 7 8 11 15 10 7 6 4 4 9 10 7 6 7 9 17 13 11 16 14 15 10
28 30 29 26 16 9 5 6 5 1 2 4 3 4 10 7 6 2 3 5 3 5 4 6 4 10 13 4 5 5 5 6 6 10 8 5 5 9 17 15 7 13 16 18 14
27 27 27 24 15 8 6 5 3 3 4 5 6 6 13 13 8 2 3 1 4 5 10 12 7 3 4 2 4 5 5 4 8 6 6 1 4 6 17 17 15 9 20 16 8
26 26 25 21 13 8 7 8 8 2 5 9 11 9 4 7 4 2 6 5 9 10 7 19 1 3 2 4 5 5 6 7 4 7 6 4 4 5 20 16 11 16 13 15 11
25 25 24 19 10 5 10 9 12 11 15 18 26 24 22 6 5 5 3 6 11 8 11 2 6 3 4 3 5 6 6 6 5 5 4 3 8 9 7 14 16 20 18 12 4
26 24 24 20 7 5 11 10 11 17 7 22 22 24 15 7 13 11 7 11 5 9 9 3 3 4 1 3 5 5 4 3 3 6 7 6 8 10 7 22 22 19 12 3 2
26 25 22 25 7 10 10 8 11 14 3 6 13 14 15 10 12 9 4 3 5 5 4 3 5 4 3 5 4 4 8 10 9 6 3 4 5 6 10 10 10 17 10 3 3
28 25 22 21 20 14 6 11 13 1 3 4 14 4 19 13 5 6 4 4 8 9 1 7 3 5 5 2 6 4 7 6 5 5 3 10 2 2 8 5 2 12 9 4 5
31 26 26 19 20 2 6 13 6 1 6 5 10 7 7 14 11 11 6 7 12 6 9 8 2 1 2 4 1 5 5 7 6 3 1 11 5 2 3 6 3 4 13 10 6
35 28 25 22 16 9 6 5 1 4 8 8 11 11 11 9 11 8 8 7 5 2 5 9 7 5 4 3 7 6 2 3 5 3 6 4 4 3 7 9 7 9 3 10 12
37 30 23 21 15 9 5 3 5 9 12 3 6 8 12 11 12 12 8 6 8 7 2 5 5 9 7 4 2 4 6 5 4 1 5 8 4 2 7 14 13 15 13 12 12
36 26 23 14 12 13 6 4 6 6 7 4 2 3 7 10 8 10 10 8 6 6 4 4 3 6 5 4 2 4 4 8 4 4 3 2 4 4 9 7 8 6 7 10 12
36 26 15 9 13 13 4 7 7 14 16 16 5 5 6 9 7 5 2 4 6 7 10 1 3 4 6 2 6 3 1 1 3 2 3 4 2 3 5 5 4 6 8 15 15
22 13 8 11 16 18 6 6 11 24 25 16 6 7 9 8 5 3 9 4 9 7 8 3 4 7 5 6 6 1 2 2 4 5 5 2 5 5 9 6 2 6 12 17 10
12 5 1 4 5 5 8 6 8 23 29 7 2 3 5 8 8 5 5 4 11 15 6 3 3 3 6 9 4 4 1 5 5 4 3 5 5 8 8 11 2 3 3 9 14
23 10 9 4 2 6 13 17 22 20 20 9 7 4 5 7 4 4 4 9 14 4 3 1 1 2 6 6 4 2 2 4 3 4 5 5 5 7 9 4 1 6 6 13 13
8 4 10 8 7 9 10 12 15 20 14 16 6 7 6 6 4 2 5 6 11 11 11 7 3 3 5 3 4 5 5 8 5 4 4 6 8 5 1 5 7 10 14 14 17
4 3 12 5 10 16 12 12 12 10 11 19 5 8 7 6 4 5 8 7 13 15 5 5 3 1 8 8 11 12 12 10 5 6 6 8 8 1 2 2 4 13 14 15 17
6 8 16 19 15 15 9 5 12 8 5 7 4 18 9 5 6 5 3 3 4 6 6 3 2 2 4 10 12 13 12 12 8 7 10 9 3 6 6 4 14 12 11 13 14
8 11 9 9 8 7 7 12 11 11 3 12 8 4 11 10 14 15 16 14 6 4 3 7 5 3 4 6 12 9 6 9 9 7 5 5 6 11 5 12 11 9 11 15 15
Wind_Direction
8 -0 356 352 344 336 326 319 312 308 309 317 334 328 272 249 243 300 314 278 294 184 29 287 295 223 256 268 253 246 30 283 288 348 88 94 76 70 54 61 83 95 100 80 23
12 1 350 346 343 332 326 318 312 303 294 294 298 291 291 282 287 274 275 294 310 197 345 305 304 260 234 245 238 146 156 245 222 26 6 47 61 74 59 51 41 75 72 68 39
12 6 356 344 340 335 322 318 310 304 291 280 276 274 288 304 321 273 209 347 156 114 342 322 330 294 250 253 226 215 217 264 356 49 16 18 36 81 84 50 62 62 58 55 47
10 8 1 349 339 335 323 318 311 304 301 284 277 275 285 302 339 214 297 109 66 340 323 317 287 251 253 253 227 193 279 242 56 47 11 355 15 74 94 88 73 66 72 59 51
8 6 3 353 343 336 328 317 314 301 312 289 282 284 291 277 260 281 46 108 31 348 325 308 313 316 294 329 111 186 264 208 65 48 340 13 353 92 83 91 84 78 72 64 56
7 5 2 354 343 336 329 319 311 295 311 288 279 280 304 274 201 333 42 350 329 329 324 313 325 341 305 314 4 19 353 86 284 181 116 76 296 126 114 113 99 91 78 76 73
4 2 1 356 345 337 330 330 318 282 293 268 273 270 273 261 296 320 331 330 300 280 298 344 328 327 312 305 294 319 299 304 241 236 140 93 316 122 132 138 134 135 136 120 104
0 1 360 358 351 345 338 336 327 308 276 252 264 271 271 187 224 243 294 266 253 12 295 311 289 281 278 286 302 240 251 233 235 192 149 123 286 140 141 147 168 150 146 136 125
355 358 358 357 355 356 348 335 330 297 284 253 264 255 273 219 205 218 253 354 339 323 279 286 272 261 277 231 325 265 234 220 129 170 154 138 140 160 166 170 161 143 153 132 127
349 353 356 355 354 355 344 346 321 292 306 245 205 281 249 247 164 178 285 28 301 277 269 249 236 223 303 54 256 328 339 83 147 178 95 317 306 189 182 170 185 159 137 141 123
344 346 351 351 343 342 347 325 344 259 214 222 179 237 231 149 197 268 221 264 262 252 252 240 279 275 29 9 3 316 305 316 94 153 126 143 246 268 187 193 160 163 151 123 109
341 340 342 345 336 335 343 328 341 312 296 274 261 266 256 176 206 244 277 260 273 250 231 296 250 74 6 34 355 318 301 298 304 33 91 146 249 246 233 182 169 123 102 90 57
337 337 336 339 324 322 313 301 337 321 287 285 258 240 196 183 237 212 198 284 273 284 298 210 98 130 39 215 240 284 298 293 51 357 349 323 304 268 257 124 109 111 106 107 272
332 332 334 332 322 299 330 355 321 343 306 259 189 222 208 192 235 210 167 304 287 265 27 319 117 1 293 314 93 334 21 10 7 18 283 45 278 311 94 54 76 109 138 216 156
324 327 323 328 312 301 340 351 320 268 316 125 172 212 187 181 121 168 173 275 264 296 334 261 122 156 305 89 56 259 27 345 300 287 332 295 2 240 99 63 127 152 189 269 287
317 318 318 313 300 296 304 332 301 345 246 170 151 173 181 192 198 140 168 217 291 306 299 259 95 342 271 19 337 299 305 295 267 194 309 250 209 270 140 163 184 195 211 227 19
313 307 308 294 273 302 336 295 15 218 292 165 169 175 197 213 207 185 180 187 215 199 255 265 203 171 87 303 272 202 21 329 347 42 220 331 328 219 137 146 166 197 178 27 4
313 311 295 279 263 234 290 6 236 249 245 190 180 217 201 202 209 208 190 244 228 213 282 260 292 162 153 215 47 292 136 144 200 35 288 332 30 5 64 65 71 49 25 359 332
324 316 292 273 219 190 226 214 211 217 245 346 307 214 279 227 216 185 194 194 264 154 150 1 35 55 89 59 96 330 56 164 108 20 29 233 99 51 66 36 29 358 331 314 317
332 324 307 228 168 191 201 235 251 247 285 313 233 290 250 263 228 159 220 219 178 119 108 303 346 223 138 173 272 215 284 49 25 129 227 314 76 201 142 154 246 318 341 332 313
339 321 8 164 171 189 217 229 240 263 264 268 252 276 277 282 283 274 192 218 124 143 137 153 154 287 135 192 205 177 256 202 133 136 171 193 268 184 193 171 162 276 311 316 348
4 298 55 120 164 217 240 251 247 276 287 290 16 283 286 307 291 278 271 193 150 133 162 148 134 265 272 298 166 129 269 127 123 266 191 157 261 278 155 178 80 83 297 292 353
336 277 282 274 275 246 265 271 258 259 270 242 183 235 244 280 302 315 326 110 132 110 106 122 0 346 298 326 30 60 307 237 184 123 204 147 261 228 106 98 226 261 296 2 10
330 308 344 309 298 339 315 297 292 292 312 247 193 201 256 269 262 295 299 134 145 113 99 81 107 159 204 295 300 293 268 256 201 143 224 220 259 69 28 60 12 9 2 20 7
287 333 2 329 331 317 304 309 309 318 350 358 328 206 232 225 247 253 253 129 105 148 102 108 157 318 294 306 308 299 296 282 260 235 179 242 249 163 155 129 358 51 28 19 359
306 342 332 302 311 322 309 282 299 294 314 296 323 315 272 212 207 249 343 43 134 236 127 125 203 209 291 301 292 289 281 281 277 268 265 267 138 116 51 41 60 51 25 0 34
308 313 342 292 297 281 273 302 309 303 8 348 336 11 8 11 64 79 85 85 71 119 119 141 154 170 242 303 322 306 276 297 286 243 76 355 117 124 102 75 74 33 19 49 23